Location: Milevsko
(49.4500°N, 14.3670°E)
Time: 01:15:41
(UTC+01:00)

ISS - Pass Details

Date: 15 July 2018
Orbit: 401 x 408 km, 51.6° (Epoch: 20 November)

Event Time Altitude Azimuth Distance (km) Brightness Sun altitude
Exits shadow 01:55:29 49° 249° (WSW) 541 -3.5 -18.2°
Maximum altitude 01:56:16 89° 167° (SSE) 420 -3.9 -18.2°
Drops below altitude 10° 01:59:38 10° 72° (ENE) 1,496 -0.6 -18.1°
Enters shadow 03:00:58 -59° 264° (W) 11,355 3.4 -14.7°
